Location: ?????
(31.7405°N, 35.1927°E)
Time: 05:39:22
(UTC+00:00)

H-2A R/B - Pass Details

Date: 17 February 2020
Orbit: 529 x 653 km, 98.3° (Epoch: 09 April)

Event Time Altitude Azimuth Distance (km) Brightness Sun altitude
Rises 02:06:54 0° 14° (NNE) 2,917 6.2 -28.9°
Reaches altitude 10° 02:09:05 10° 16° (NNE) 2,022 5.4 -28.4°
Enters shadow 02:11:23 31° 20° (NNE) 1,130 4.0 -28.0°
